Location: Newark
(48.1281°N, 2.1556°W)
Time: 11:19:57
(UTC+00:00)

Envisat - Pass Details

Date: 20 November 2019
Orbit: 764 x 766 km, 98.1° (Epoch: 07 December)

Event Time Altitude Azimuth Distance (km) Brightness Sun altitude
Rises 05:22:29 0° 34° (NE) 3,242 6.6 -19.7°
Reaches altitude 10° 05:27:27 10° 77° (ENE) 2,306 6.5 -18.9°
Maximum altitude 05:28:05 10° 84° (E) 2,290 6.6 -18.7°
Drops below altitude 10° 05:28:44 10° 92° (E) 2,304 6.7 -18.6°
Sets 05:33:39 0° 134° (SE) 3,221 7.2 -17.8°
